THORAD AGENA D DEB, 42499

Orbit data source: Space-Track

THORAD AGENA D DEB, 42499 is space debris in SSO originally from a launch on Wed, 08 Apr 1970 UTC launched from the Air Force Western Test Range (AFWTR). Debris objects in space refer to the collection of defunct objects orbiting the Earth. Examples of debris include non-operational satellites, rocket bodies, and fragments generated from explosions, collisions, or faulty payload assembly.

Loading next visibility...
THORAD AGENA D DEB details
Identifier
42499, 1970-025RD
Orbit
SSO
Last TLE update5 days ago
Origin
Flag of USNASA LeRC (US)
ManufacturerUnknown
MissionSpacecraft
Bus & MotorUnknown
MassUnknown
Launch date (UTC)
1970-04-08 (55 years ago)
Launch vehicleUnknown
Launch site
Air Force Western Test Range (AFWTR)
Object type
Payload
Rocket body
Debris
Shape & HBRUnknown
Radar Cross SectionSmall (<0.1 m²)

Expand to show TLE details & history

TLE from 5 days ago
0 THORAD AGENA D DEB
1 42499U 70025RD  24356.57132018  .00001354  00000-0  13887-2 0  9991
2 42499 100.1241 221.3519 0005752 160.2128 199.9244 13.78424871113470
Epoch: 2024-12-21T13:42Z
Definitive object data (Epoch: 2024-12-21T13:42:42.063Z)
Latitude-0.0001°
Longitude-74.94391°
Altitude976.263 km
Speed7.362 km/s
True Right ascension14h 45m 24s
True Declination0° 00' 00"
Sunlit
Object was in daylight at TLE epoch
Visualization TLE readout
Latitude17.48276°
Longitude-72.42235°
Altitude974.288 km
Speed7.365 km/s
Apparent Right ascension13h 00m 11s
Apparent Declination-10° 56' 52"
Sunlit
Object is in daylight
Visualization observer readout
Local Sidereal Time22:05:33
Azimuth294.585° NW
Elevation-41.808°
Doppler factor1
Orbital elements
Apogee altitude970.99 km
Perigee altitude962.54 km
Semi-major axis7,344.902 km
Eccentricity0.0005752
Inclination100.1241°
RAAN221.3519°
Arg. of periapsis160.2128°
True anomaly199.90195°
Mean anomaly199.9244°
Eccentric anomaly199.91318°
Mean motion3.44798 °/min
BSTAR0.0013887
Orbital period104.41 mins
Loading maneuver chart data...

THORAD AGENA D DEB Visibility forecast

Observer location: undefined°, undefined

Span
Click to sort rows by Start time (UTC) header in descending order
Start Az.
Max El. time (UTC)
Max El. Az.
Max El.
End time (UTC)
End Az.
6 mins2024-12-27 02:44:21.544Z59.049° ENE2024-12-27 02:47:21.544Z90.37° ESE15.209°2024-12-27 02:50:21.544Z122.469° SE
10 mins2024-12-27 04:26:21.544Z9.993° NNE2024-12-27 04:31:21.544Z258.143° W43.512°2024-12-27 04:36:21.544Z205.176° SW
9 mins2024-12-27 14:26:21.544Z129.584° SE2024-12-27 14:30:21.544Z69.501° E34.56°2024-12-27 14:35:21.544Z0.736° NNE
8 mins2024-12-27 16:10:21.544Z219.71° SW2024-12-27 16:13:21.544Z260.765° W25.377°2024-12-27 16:18:21.544Z319.926° NNW
|